Weather History for Lampasas, TX

Change the Weather History Date:

Monday, March 18, 2013

  Actual Average (KGRK) Record (KGRK)
Temperature  
Mean Temperature 65 °F -  
Max Temperature 77 °F 68 °F 86 °F (2011)
Min Temperature 53 °F 47 °F 41 °F (2001)
Growing Degree Days 15 (Base 50)    
Moisture  
Dew Point 50 °F    
Average Humidity 62    
Maximum Humidity 100    
Minimum Humidity 29    
Precipitation  
Precipitation 0.00 in - - ()
Sea Level Pressure  
Sea Level Pressure 29.83 in    
Wind  
Wind Speed 4 mph (NNW)    
Max Wind Speed 16 mph    
Max Gust Speed 21 mph    
Visibility 8 miles    
Events Fog    
Averages and records for this station are not official NWS values.
T = Trace of Precipitation, MM = Missing Value Source: NWS Daily Summary

Daily Weather History Graph

Daily Weather History Graph

Search for Another Location

Airport:

Trip Planner

Search our weather history database for the weather conditions in past years. The results will help you decide how hot, cold, wet, or windy it might be!

Date:

Astronomy

Mar. 18, 2013 Rise Set
Actual Time 7:38 AM CDT 7:43 PM CDT
Civil Twilight 7:14 AM CDT 8:07 PM CDT
Nautical Twilight 6:46 AM CDT 8:35 PM CDT
Astronomical Twilight 6:18 AM CDT 9:03 PM CDT
Moon 12:01 PM CDT (3/18) 1:22 AM CDT (3/18)
Length of Visible Light 12h 52m
Length of Day
12h 04m
Waxing Crescent, 41% of the Moon is Illuminated
Mar 18
Waxing Crescent
Mar 19
First Quarter
Mar 27
Full
Apr 2
Last Quarter
Apr 10
New

Hourly Weather History & Observations

Time (CDT) Temp. Dew Point Humidity Pressure Visibility Wind Dir Wind Speed Gust Speed Precip Events Conditions
12:15 AM 57.2 °F 51.8 °F 82% 29.72 in 10.0 mi Calm Calm - N/A   Clear
12:35 AM 55.4 °F 51.8 °F 88% 29.71 in 10.0 mi SSW 3.5 mph - N/A   Clear
12:55 AM 57.2 °F 51.8 °F 82% 29.72 in 10.0 mi SSW 3.5 mph - N/A   Clear
1:15 AM 59.0 °F 51.8 °F 77% 29.72 in 10.0 mi SW 3.5 mph - N/A   Clear
1:35 AM 60.8 °F 51.8 °F 72% 29.72 in 10.0 mi SW 4.6 mph - N/A   Clear
1:55 AM 60.8 °F 53.6 °F 77% 29.72 in 10.0 mi Calm Calm - N/A   Clear
2:15 AM 60.8 °F 55.4 °F 82% 29.72 in 10.0 mi South 4.6 mph - N/A   Clear
2:35 AM 60.8 °F 59.0 °F 94% 29.72 in 10.0 mi Calm Calm - N/A   Clear
2:55 AM 60.8 °F 59.0 °F 94% 29.73 in 10.0 mi Calm Calm - N/A   Clear
3:15 AM 60.8 °F 59.0 °F 94% 29.73 in 10.0 mi North 6.9 mph - N/A   Clear
3:35 AM 60.8 °F 59.0 °F 94% 29.73 in 10.0 mi Calm Calm - N/A   Clear
3:55 AM 60.8 °F 59.0 °F 94% 29.73 in 7.0 mi Calm Calm - N/A   Clear
4:15 AM 57.2 °F 55.4 °F 94% 29.73 in 5.0 mi Calm Calm - N/A   Clear
4:35 AM 57.2 °F 55.4 °F 94% 29.73 in 5.0 mi Calm Calm - N/A   Clear
4:55 AM 57.2 °F 55.4 °F 94% 29.72 in 5.0 mi South 3.5 mph - N/A   Scattered Clouds
5:15 AM 60.8 °F 59.0 °F 94% 29.73 in 4.0 mi Calm Calm - N/A   Scattered Clouds
5:35 AM 59.0 °F 57.2 °F 94% 29.73 in 2.5 mi Calm Calm - N/A   Scattered Clouds
5:55 AM 60.8 °F 59.0 °F 94% 29.73 in 2.5 mi Calm Calm - N/A   Mist
6:15 AM 60.8 °F 59.0 °F 94% 29.73 in 2.5 mi Calm Calm - N/A   Mist
6:35 AM 60.8 °F 59.0 °F 94% 29.73 in 2.5 mi Calm Calm - N/A   Clear
6:55 AM 60.8 °F 59.0 °F 94% 29.74 in 0.5 mi Calm Calm - N/A Fog Fog
7:15 AM 59.0 °F 59.0 °F 100% 29.74 in 0.2 mi Calm Calm - N/A Fog Fog
7:35 AM 59.0 °F 59.0 °F 100% 29.75 in 0.2 mi Calm Calm - N/A Fog Fog
7:55 AM 60.8 °F 59.0 °F 94% 29.75 in 0.5 mi Calm Calm - N/A Fog Fog
8:15 AM 60.8 °F 59.0 °F 94% 29.76 in 0.8 mi Calm Calm - N/A   Mist
8:35 AM 60.8 °F 59.0 °F 94% 29.76 in 2.0 mi Calm Calm - N/A   Clear
8:55 AM 60.8 °F 60.8 °F 100% 29.77 in 4.0 mi Calm Calm - N/A   Clear
9:15 AM 62.6 °F 60.8 °F 94% 29.78 in 7.0 mi WSW 9.2 mph - N/A   Clear
9:35 AM 68.0 °F 60.8 °F 78% 29.79 in 10.0 mi WSW 6.9 mph - N/A   Clear
9:55 AM 69.8 °F 55.4 °F 60% 29.81 in 10.0 mi West 10.4 mph - N/A   Clear
10:15 AM 71.6 °F 50.0 °F 46% 29.82 in 10.0 mi WNW 10.4 mph 18.4 mph N/A   Clear
10:35 AM 71.6 °F 46.4 °F 41% 29.82 in 10.0 mi WNW 10.4 mph 17.3 mph N/A   Clear
10:55 AM 75.2 °F 46.4 °F 36% 29.82 in 10.0 mi NW 11.5 mph 16.1 mph N/A   Clear
11:15 AM 75.2 °F 46.4 °F 36% 29.84 in 10.0 mi NNW 12.7 mph 18.4 mph N/A   Clear
11:35 AM 75.2 °F 42.8 °F 31% 29.85 in 10.0 mi North 11.5 mph 17.3 mph N/A   Clear
11:55 AM 75.2 °F 41.0 °F 29% 29.85 in 10.0 mi NW 15.0 mph 20.7 mph N/A   Clear
12:15 PM 75.2 °F 44.6 °F 34% 29.86 in 10.0 mi North 15.0 mph 20.7 mph N/A   Clear
12:35 PM 75.2 °F 44.6 °F 34% 29.86 in 10.0 mi North 16.1 mph 19.6 mph N/A   Clear
12:55 PM 75.2 °F 44.6 °F 34% 29.86 in 10.0 mi North 13.8 mph 18.4 mph N/A   Clear
1:15 PM 75.2 °F 42.8 °F 31% 29.87 in 10.0 mi NNW 11.5 mph 19.6 mph N/A   Clear
1:35 PM 75.2 °F 44.6 °F 34% 29.87 in 10.0 mi North 9.2 mph 19.6 mph N/A   Clear
1:55 PM 75.2 °F 44.6 °F 34% 29.87 in 10.0 mi North 11.5 mph 19.6 mph N/A   Clear
2:15 PM 75.2 °F 44.6 °F 34% 29.86 in 10.0 mi North 6.9 mph - N/A   Clear
2:35 PM 75.2 °F 44.6 °F 34% 29.85 in 10.0 mi NNW 9.2 mph 17.3 mph N/A   Clear
2:55 PM 75.2 °F 44.6 °F 34% 29.85 in 10.0 mi NNW 9.2 mph - N/A   Clear
3:15 PM 75.2 °F 44.6 °F 34% 29.84 in 10.0 mi North 9.2 mph 17.3 mph N/A   Clear
3:35 PM 77.0 °F 42.8 °F 29% 29.84 in 10.0 mi North 9.2 mph - N/A   Clear
3:55 PM 77.0 °F 44.6 °F 32% 29.85 in 10.0 mi North 11.5 mph 18.4 mph N/A   Clear
4:15 PM 77.0 °F 44.6 °F 32% 29.86 in 10.0 mi NNW 10.4 mph 16.1 mph N/A   Clear
4:35 PM 75.2 °F 44.6 °F 34% 29.86 in 10.0 mi North 11.5 mph 18.4 mph N/A   Clear
4:55 PM 75.2 °F 42.8 °F 31% 29.87 in 10.0 mi North 9.2 mph - N/A   Clear
5:15 PM 75.2 °F 46.4 °F 36% 29.87 in 10.0 mi NNW 10.4 mph - N/A   Clear
5:35 PM 75.2 °F 44.6 °F 34% 29.88 in 10.0 mi North 9.2 mph 16.1 mph N/A   Clear
5:55 PM 71.6 °F 44.6 °F 38% 29.89 in 7.0 mi North 8.1 mph - N/A   Clear
6:15 PM 71.6 °F 44.6 °F 38% 29.89 in 10.0 mi North 6.9 mph - N/A   Clear
6:35 PM 71.6 °F 44.6 °F 38% 29.91 in 10.0 mi North 8.1 mph - N/A   Clear
6:55 PM 69.8 °F 42.8 °F 38% 29.91 in 10.0 mi North 6.9 mph - N/A   Clear
7:15 PM 69.8 °F 44.6 °F 40% 29.92 in 10.0 mi North 4.6 mph - N/A   Clear
7:35 PM 69.8 °F 46.4 °F 43% 29.92 in 10.0 mi North 5.8 mph - N/A   Clear
7:55 PM 68.0 °F 44.6 °F 43% 29.93 in 10.0 mi North 3.5 mph - N/A   Clear
8:15 PM 64.4 °F 44.6 °F 49% 29.94 in 10.0 mi Calm Calm - N/A   Clear
8:35 PM 62.6 °F 44.6 °F 52% 29.95 in 10.0 mi Calm Calm - N/A   Clear
8:55 PM 60.8 °F 44.6 °F 55% 29.95 in 10.0 mi NNE 4.6 mph - N/A   Clear
9:15 PM 60.8 °F 44.6 °F 55% 29.95 in 10.0 mi NNE 6.9 mph - N/A   Clear
9:35 PM 60.8 °F 46.4 °F 59% 29.95 in 10.0 mi NNE 4.6 mph - N/A   Clear
9:55 PM 59.0 °F 46.4 °F 63% 29.96 in 10.0 mi NNE 4.6 mph - N/A   Clear
10:15 PM 59.0 °F 46.4 °F 63% 29.97 in 10.0 mi NNE 6.9 mph - N/A   Clear
10:55 PM 57.2 °F 44.6 °F 63% 29.97 in 10.0 mi NNE 4.6 mph - N/A   Clear
11:15 PM 55.4 °F 44.6 °F 67% 29.97 in 10.0 mi NNE 4.6 mph - N/A   Clear
11:35 PM 53.6 °F 44.6 °F 72% 29.97 in 10.0 mi NNE 3.5 mph - N/A   Clear
11:55 PM 53.6 °F 44.6 °F 72% 29.96 in 10.0 mi NE 4.6 mph - N/A   Clear